Weather History for Newport, RI

Change the Weather History Date:

Thursday, February 7, 2013

  Actual Average Record
Temperature  
Mean Temperature 24 °F -  
Max Temperature 30 °F 34 °F 50 °F (2005)
Min Temperature 19 °F 22 °F 7 °F (1993)
Degree Days  
Heating Degree Days 40    
Moisture  
Dew Point 7 °F    
Average Humidity 47    
Maximum Humidity 65    
Minimum Humidity 32    
Precipitation  
Precipitation 0.00 in - - ()
Sea Level Pressure  
Sea Level Pressure 30.45 in    
Wind  
Wind Speed 9 mph (North)    
Max Wind Speed 15 mph    
Max Gust Speed 22 mph    
Visibility 10 miles    
Events      
Averages and records for this station are not official NWS values.
T = Trace of Precipitation, MM = Missing Value Source: NWS Daily Summary

Daily Weather History Graph

Daily Weather History Graph

Search for Another Location

Airport:

Trip Planner

Search our weather history database for the weather conditions in past years. The results will help you decide how hot, cold, wet, or windy it might be!

Date:

Astronomy

Feb. 07, 2013 Rise Set
Actual Time 6:50 AM EST 5:09 PM EST
Civil Twilight 6:21 AM EST 5:37 PM EST
Nautical Twilight 5:48 AM EST 6:10 PM EST
Astronomical Twilight 5:16 AM EST 6:43 PM EST
Moon 4:28 AM EST (2/7) 2:28 PM EST (2/7)
Length of Visible Light 11h 16m
Length of Day
10h 18m
Waning Crescent, 9% of the Moon is Illuminated
Feb 7
Waning Crescent
Feb 10
New
Feb 17
First Quarter
Feb 25
Full
Mar 4
Last Quarter

Hourly Weather History & Observations

Time (EST) Temp. Windchill Dew Point Humidity Pressure Visibility Wind Dir Wind Speed Gust Speed Precip Events Conditions
12:53 AM 26.1 °F 14.0 °F 3.9 °F 39% 30.30 in 10.0 mi NW 15.0 mph 21.9 mph N/A   Clear
1:53 AM 26.1 °F 14.5 °F 3.9 °F 39% 30.31 in 10.0 mi NNW 13.8 mph - N/A   Clear
2:53 AM 25.0 °F 14.2 °F 3.0 °F 39% 30.35 in 10.0 mi NW 11.5 mph - N/A   Clear
3:53 AM 23.0 °F 13.9 °F 5.0 °F 46% 30.37 in 10.0 mi NW 8.1 mph - N/A   Clear
4:53 AM 21.9 °F 14.5 °F 6.1 °F 51% 30.40 in 10.0 mi NW 5.8 mph - N/A   Clear
5:53 AM 21.9 °F 15.7 °F 7.0 °F 53% 30.42 in 10.0 mi NW 4.6 mph - N/A   Clear
6:53 AM 19.9 °F 13.4 °F 7.0 °F 57% 30.43 in 10.0 mi NNW 4.6 mph - N/A   Clear
7:53 AM 23.0 °F 14.7 °F 10.0 °F 58% 30.48 in 10.0 mi NW 6.9 mph - N/A   Clear
8:53 AM 24.1 °F 16.0 °F 9.0 °F 53% 30.49 in 10.0 mi North 6.9 mph 16.1 mph N/A   Partly Cloudy
9:53 AM 24.1 °F 13.7 °F 6.1 °F 46% 30.51 in 10.0 mi North 10.4 mph - N/A   Overcast
10:53 AM 26.1 °F 15.6 °F 5.0 °F 41% 30.51 in 10.0 mi North 11.5 mph - N/A   Clear
11:53 AM 27.0 °F 17.3 °F 3.0 °F 36% 30.49 in 10.0 mi North 10.4 mph - N/A   Clear
12:53 PM 28.0 °F 20.8 °F 3.9 °F 36% 30.48 in 10.0 mi NNW 6.9 mph - N/A   Clear
1:53 PM 30.0 °F 24.1 °F 3.9 °F 33% 30.46 in 10.0 mi Variable 5.8 mph - N/A   Clear
2:53 PM 30.9 °F 25.2 °F 3.9 °F 32% 30.46 in 10.0 mi Variable 5.8 mph - N/A   Clear
3:53 PM 30.0 °F 25.2 °F 3.0 °F 32% 30.46 in 10.0 mi NNE 4.6 mph - N/A   Clear
4:53 PM 27.0 °F 20.5 °F 9.0 °F 47% 30.47 in 10.0 mi SSE 5.8 mph - N/A   Clear
5:53 PM 27.0 °F - 9.0 °F 47% 30.48 in 10.0 mi Calm Calm - N/A   Partly Cloudy
6:53 PM 27.0 °F 18.7 °F 10.0 °F 49% 30.49 in 10.0 mi East 8.1 mph - N/A   Overcast
7:53 PM 26.1 °F 16.2 °F 8.1 °F 47% 30.49 in 10.0 mi East 10.4 mph - N/A   Overcast
8:53 PM 26.1 °F 18.4 °F 10.9 °F 53% 30.48 in 10.0 mi ENE 6.9 mph - N/A   Overcast
9:53 PM 25.0 °F 18.1 °F 12.0 °F 58% 30.48 in 10.0 mi ENE 5.8 mph - N/A   Clear
10:53 PM 24.1 °F 17.0 °F 14.0 °F 65% 30.48 in 10.0 mi ENE 5.8 mph - N/A   Clear
11:53 PM 24.1 °F 17.0 °F 14.0 °F 65% 30.46 in 10.0 mi East 5.8 mph - N/A   Clear